AFL1200 UUEE-USPP

Flight info

Callsign AFL1200
Flight time 1h 37m
Altitude 35000
Route OLMUN3H OLMUN T629 IPSIL T830 LAMGU N604 OGSIN P983 SUMOM SUMOM1F
Aircraft A320/M-SDE3FGHIRWY/LB1

Departure

Time 2026-04-26 08:06
Airport Sheremetyevo International Airport (UUEE)

Arrival

Time 2026-04-26 09:43
Airport Perm International Airport (USPP)
Time Latitude Longitude Altitude Speed Heading
2026-04-26 07:37 55.97887 37.41661 0 ft 0 kts 77°
2026-04-26 07:57 55.97882 37.41621 639 ft 4 kts 79°
2026-04-26 07:58 55.97877 37.41573 647 ft 4 kts 84°
2026-04-26 07:58 55.97876 37.41526 644 ft 4 kts 97°
2026-04-26 07:58 55.97884 37.41485 640 ft 4 kts 153°
2026-04-26 07:58 55.97888 37.41481 639 ft 0 kts 165°
2026-04-26 08:02 55.97885 37.41482 639 ft 2 kts 165°
2026-04-26 08:02 55.97854 37.41498 639 ft 8 kts 165°
2026-04-26 08:02 55.97791 37.41528 639 ft 11 kts 165°
2026-04-26 08:02 55.97693 37.41575 639 ft 17 kts 165°
2026-04-26 08:03 55.97610 37.41640 642 ft 12 kts 116°
2026-04-26 08:03 55.97628 37.41805 639 ft 15 kts 75°
2026-04-26 08:03 55.97658 37.42002 640 ft 18 kts 75°
2026-04-26 08:03 55.97690 37.42226 648 ft 19 kts 75°
2026-04-26 08:04 55.97726 37.42464 642 ft 20 kts 75°
2026-04-26 08:04 55.97756 37.42661 640 ft 12 kts 75°
2026-04-26 08:04 55.97747 37.42785 639 ft 11 kts 143°
2026-04-26 08:04 55.97661 37.42830 641 ft 14 kts 166°
2026-04-26 08:05 55.97605 37.42827 646 ft 7 kts 242°
2026-04-26 08:05 55.97596 37.42773 640 ft 0 kts 255°
2026-04-26 08:05 55.97595 37.42767 639 ft 7 kts 254°
2026-04-26 08:05 55.97507 37.42198 639 ft 86 kts 256°
2026-04-26 08:06 55.97305 37.40821 641 ft 144 kts 256°
2026-04-26 08:06 55.97000 37.38929 1027 ft 158 kts 251°
2026-04-26 08:06 55.96701 37.37097 1869 ft 150 kts 252°
2026-04-26 08:06 55.96417 37.35323 2546 ft 147 kts 252°
2026-04-26 08:07 55.96146 37.33579 3201 ft 145 kts 252°
2026-04-26 08:07 55.95876 37.31841 3760 ft 146 kts 251°
2026-04-26 08:07 55.95586 37.29992 4070 ft 164 kts 252°
2026-04-26 08:07 55.95257 37.27902 4285 ft 188 kts 252°
2026-04-26 08:08 55.94881 37.25504 4589 ft 212 kts 252°
2026-04-26 08:08 55.94460 37.22826 4982 ft 236 kts 252°
2026-04-26 08:08 55.94007 37.19943 5667 ft 246 kts 252°
2026-04-26 08:08 55.93541 37.16969 6468 ft 251 kts 252°
2026-04-26 08:09 55.93070 37.13955 7315 ft 253 kts 252°
2026-04-26 08:09 55.92595 37.10933 8152 ft 256 kts 252°
2026-04-26 08:09 55.92133 37.08008 8947 ft 259 kts 252°
2026-04-26 08:09 55.91718 37.04852 9721 ft 264 kts 263°
2026-04-26 08:10 55.91915 37.01561 10461 ft 274 kts 284°
2026-04-26 08:10 55.92884 36.98565 11216 ft 287 kts 308°
2026-04-26 08:10 55.94480 36.96303 11965 ft 297 kts 320°
2026-04-26 08:10 55.96219 36.94272 12710 ft 304 kts 327°
2026-04-26 08:11 55.98251 36.93015 13401 ft 317 kts 345°
2026-04-26 08:11 56.00500 36.92924 14019 ft 330 kts
2026-04-26 08:11 56.02723 36.94163 14633 ft 341 kts 26°
2026-04-26 08:11 56.04742 36.96430 15249 ft 346 kts 32°
2026-04-26 08:12 56.06767 36.98817 15871 ft 350 kts 31°
2026-04-26 08:12 56.08791 37.01276 16463 ft 355 kts 37°
2026-04-26 08:12 56.10583 37.04356 17091 ft 360 kts 51°
2026-04-26 08:12 56.12002 37.08085 17514 ft 370 kts 64°
2026-04-26 08:13 56.12973 37.12429 17768 ft 380 kts 78°
2026-04-26 08:13 56.13621 37.17077 18205 ft 386 kts 79°
2026-04-26 08:13 56.14244 37.21786 18694 ft 389 kts 85°
2026-04-26 08:13 56.14313 37.26583 19172 ft 384 kts 103°
2026-04-26 08:14 56.13647 37.31093 19657 ft 376 kts 121°
2026-04-26 08:14 56.12325 37.35041 20157 ft 365 kts 138°
2026-04-26 08:14 56.10507 37.38105 20660 ft 355 kts 153°
2026-04-26 08:14 56.08376 37.40205 21190 ft 348 kts 163°
2026-04-26 08:15 56.06171 37.42046 21742 ft 351 kts 163°
2026-04-26 08:15 56.03954 37.43897 22294 ft 353 kts 163°
2026-04-26 08:15 56.01813 37.45679 22827 ft 356 kts 164°
2026-04-26 08:15 55.99562 37.47551 23307 ft 358 kts 163°
2026-04-26 08:16 55.97341 37.49715 23769 ft 371 kts 153°
2026-04-26 08:16 55.95391 37.52869 24228 ft 388 kts 139°
2026-04-26 08:16 55.93884 37.56987 24686 ft 407 kts 123°
2026-04-26 08:16 55.92992 37.61895 25118 ft 424 kts 109°
2026-04-26 08:17 55.92424 37.67067 25559 ft 427 kts 109°
2026-04-26 08:17 55.91776 37.72240 25972 ft 424 kts 115°
2026-04-26 08:17 55.90726 37.77092 26388 ft 416 kts 126°
2026-04-26 08:17 55.89352 37.81592 26789 ft 414 kts 128°
2026-04-26 08:18 55.87948 37.86072 27190 ft 416 kts 128°
2026-04-26 08:18 55.86529 37.90595 27590 ft 418 kts 129°
2026-04-26 08:18 55.85105 37.95132 27987 ft 420 kts 129°
2026-04-26 08:18 55.83674 37.99684 28376 ft 423 kts 129°
2026-04-26 08:19 55.82238 38.04252 28741 ft 425 kts 129°
2026-04-26 08:19 55.80915 38.09009 29111 ft 436 kts 120°
2026-04-26 08:19 55.80050 38.14265 29449 ft 451 kts 109°
2026-04-26 08:19 55.79734 38.19919 29581 ft 470 kts 96°
2026-04-26 08:20 55.79862 38.25777 29701 ft 478 kts 94°
2026-04-26 08:20 55.80003 38.31721 29827 ft 484 kts 94°
2026-04-26 08:20 55.80182 38.37734 29946 ft 492 kts 90°
2026-04-26 08:20 55.80762 38.43799 30073 ft 504 kts 80°
2026-04-26 08:21 55.81789 38.49810 30195 ft 511 kts 76°
2026-04-26 08:21 55.82887 38.55843 30399 ft 512 kts 76°
2026-04-26 08:21 55.83975 38.61880 30692 ft 512 kts 76°
2026-04-26 08:21 55.85041 38.67843 30986 ft 512 kts 76°
2026-04-26 08:22 55.86302 38.73788 31274 ft 515 kts 68°
2026-04-26 08:22 55.87834 38.79545 31570 ft 515 kts 67°
2026-04-26 08:22 55.89373 38.85308 31878 ft 515 kts 67°
2026-04-26 08:22 55.90909 38.91077 32179 ft 514 kts 67°
2026-04-26 08:23 55.92436 38.96836 32476 ft 514 kts 66°
2026-04-26 08:23 55.93958 39.02603 32784 ft 514 kts 66°
2026-04-26 08:23 55.95475 39.08375 33079 ft 513 kts 66°
2026-04-26 08:23 55.96990 39.14137 33390 ft 513 kts 66°
2026-04-26 08:24 55.98512 39.19900 33646 ft 512 kts 66°
2026-04-26 08:24 56.00033 39.25645 33912 ft 511 kts 66°
2026-04-26 08:24 56.01547 39.31380 34201 ft 510 kts 66°
2026-04-26 08:24 56.03053 39.37113 34409 ft 509 kts 66°
2026-04-26 08:25 56.06036 39.48519 34469 ft 503 kts 66°
2026-04-26 08:25 56.09350 39.59523 34475 ft 503 kts 57°
2026-04-26 08:26 56.13151 39.70056 34477 ft 503 kts 58°
2026-04-26 08:26 56.16921 39.80622 34480 ft 503 kts 58°
2026-04-26 08:27 56.20680 39.91196 34474 ft 502 kts 58°
2026-04-26 08:27 56.24430 40.01768 34474 ft 502 kts 58°
2026-04-26 08:28 56.28180 40.12370 34475 ft 502 kts 58°
2026-04-26 08:28 56.31890 40.22924 34479 ft 501 kts 58°
2026-04-26 08:29 56.35602 40.33551 34481 ft 501 kts 58°
2026-04-26 08:29 56.39336 40.44270 34484 ft 501 kts 58°
2026-04-26 08:30 56.43008 40.54878 34483 ft 501 kts 58°
2026-04-26 08:30 56.46276 40.65956 34479 ft 498 kts 71°
2026-04-26 08:31 56.48219 40.77940 34482 ft 496 kts 77°
2026-04-26 08:31 56.50028 40.89989 34478 ft 496 kts 77°
2026-04-26 08:32 56.51837 41.02063 34481 ft 497 kts 77°
2026-04-26 08:32 56.53624 41.14161 34483 ft 497 kts 77°
2026-04-26 08:33 56.55390 41.26267 34485 ft 497 kts 77°
2026-04-26 08:33 56.57154 41.38382 34487 ft 497 kts 77°
2026-04-26 08:34 56.58917 41.50499 34492 ft 497 kts 77°
2026-04-26 08:34 56.60658 41.62576 34499 ft 497 kts 77°
2026-04-26 08:35 56.62398 41.74808 34500 ft 497 kts 77°
2026-04-26 08:35 56.64110 41.86888 34504 ft 497 kts 77°
2026-04-26 08:36 56.65825 41.99072 34511 ft 497 kts 77°
2026-04-26 08:36 56.67509 42.11252 34517 ft 497 kts 77°
2026-04-26 08:37 56.69189 42.23449 34523 ft 497 kts 77°
2026-04-26 08:37 56.70864 42.35636 34529 ft 496 kts 77°
2026-04-26 08:38 56.72519 42.47849 34533 ft 496 kts 77°
2026-04-26 08:38 56.74179 42.60050 34538 ft 496 kts 76°
2026-04-26 08:39 56.75777 42.70102 34547 ft 496 kts 73°
2026-04-26 08:39 56.77852 42.82101 34547 ft 496 kts 73°
2026-04-26 08:40 56.79875 42.94130 34554 ft 496 kts 74°
2026-04-26 08:40 56.81807 43.06200 34561 ft 495 kts 75°
2026-04-26 08:41 56.83704 43.18285 34564 ft 495 kts 75°
2026-04-26 08:41 56.85605 43.30353 34571 ft 495 kts 74°
2026-04-26 08:42 56.87514 43.42432 34572 ft 494 kts 74°
2026-04-26 08:42 56.89403 43.54538 34580 ft 494 kts 75°
2026-04-26 08:43 56.91276 43.66629 34587 ft 494 kts 75°
2026-04-26 08:43 56.93134 43.78730 34591 ft 494 kts 75°
2026-04-26 08:44 56.94981 43.90854 34601 ft 494 kts 75°
2026-04-26 08:44 56.96807 44.02879 34605 ft 494 kts 75°
2026-04-26 08:45 56.98638 44.15021 34612 ft 494 kts 75°
2026-04-26 08:45 57.00447 44.27164 34620 ft 493 kts 75°
2026-04-26 08:46 57.02241 44.39310 34625 ft 493 kts 75°
2026-04-26 08:46 57.04033 44.51447 34630 ft 492 kts 75°
2026-04-26 08:47 57.05807 44.63589 34631 ft 492 kts 75°
2026-04-26 08:47 57.07568 44.75744 34642 ft 492 kts 75°
2026-04-26 08:48 57.09316 44.87907 34642 ft 492 kts 75°
2026-04-26 08:48 57.11049 45.00064 34653 ft 491 kts 75°
2026-04-26 08:49 57.12777 45.12240 34660 ft 491 kts 75°
2026-04-26 08:49 57.14472 45.24321 34663 ft 491 kts 75°
2026-04-26 08:50 57.16165 45.36485 34669 ft 490 kts 75°
2026-04-26 08:50 57.17845 45.48653 34677 ft 490 kts 75°
2026-04-26 08:51 57.20349 45.66901 34678 ft 489 kts 76°
2026-04-26 08:52 57.21997 45.79083 34684 ft 489 kts 76°
2026-04-26 08:52 57.23638 45.91345 34686 ft 489 kts 76°
2026-04-26 08:53 57.25249 46.03449 34691 ft 489 kts 76°
2026-04-26 08:53 57.26862 46.15642 34693 ft 488 kts 76°
2026-04-26 08:54 57.28468 46.27823 34697 ft 488 kts 76°
2026-04-26 08:54 57.30059 46.40027 34703 ft 488 kts 76°
2026-04-26 08:55 57.31632 46.52243 34708 ft 488 kts 76°
2026-04-26 08:55 57.33196 46.64479 34712 ft 488 kts 76°
2026-04-26 08:56 57.34838 46.76659 34717 ft 487 kts 70°
2026-04-26 08:56 57.37526 46.88282 34738 ft 497 kts 64°
2026-04-26 08:57 57.40389 47.00007 34743 ft 500 kts 64°
2026-04-26 08:57 57.43238 47.11792 34749 ft 501 kts 64°
2026-04-26 08:58 57.46077 47.23609 34750 ft 501 kts 64°
2026-04-26 08:58 57.48884 47.35377 34756 ft 501 kts 64°
2026-04-26 08:59 57.51700 47.47231 34761 ft 501 kts 64°
2026-04-26 08:59 57.54526 47.59090 34759 ft 501 kts 64°
2026-04-26 09:00 57.57339 47.70966 34759 ft 501 kts 64°
2026-04-26 09:00 57.60134 47.82883 34765 ft 502 kts 65°
2026-04-26 09:01 57.62917 47.94829 34768 ft 502 kts 65°
2026-04-26 09:01 57.65696 48.06795 34765 ft 503 kts 65°
2026-04-26 09:02 57.68464 48.18780 34771 ft 503 kts 65°
2026-04-26 09:02 57.71225 48.30824 34781 ft 503 kts 65°
2026-04-26 09:03 57.73948 48.42892 34782 ft 504 kts 68°
2026-04-26 09:03 57.75540 48.55569 34785 ft 505 kts 82°
2026-04-26 09:04 57.76467 48.68626 34786 ft 505 kts 82°
2026-04-26 09:04 57.77392 48.81686 34784 ft 506 kts 82°
2026-04-26 09:05 57.78311 48.94745 34790 ft 506 kts 82°
2026-04-26 09:05 57.79205 49.07831 34795 ft 506 kts 82°
2026-04-26 09:06 57.80083 49.20911 34802 ft 505 kts 82°
2026-04-26 09:06 57.80951 49.33989 34808 ft 505 kts 82°
2026-04-26 09:07 57.81810 49.47061 34816 ft 505 kts 83°
2026-04-26 09:07 57.82647 49.60134 34822 ft 505 kts 83°
2026-04-26 09:08 57.83471 49.73222 34827 ft 505 kts 83°
2026-04-26 09:08 57.84284 49.86295 34832 ft 504 kts 83°
2026-04-26 09:09 57.85084 49.99370 34832 ft 504 kts 83°
2026-04-26 09:09 57.85867 50.12444 34831 ft 504 kts 83°
2026-04-26 09:10 57.86653 50.25511 34834 ft 503 kts 83°
2026-04-26 09:10 57.87413 50.38490 34834 ft 503 kts 83°
2026-04-26 09:11 57.88164 50.51629 34839 ft 503 kts 83°
2026-04-26 09:11 57.88899 50.64690 34839 ft 502 kts 84°
2026-04-26 09:12 57.89618 50.77652 34836 ft 502 kts 84°
2026-04-26 09:12 57.90331 50.90729 34840 ft 502 kts 84°
2026-04-26 09:13 57.91024 51.03778 34842 ft 502 kts 84°
2026-04-26 09:13 57.91714 51.16869 34841 ft 502 kts 84°
2026-04-26 09:14 57.92381 51.29949 34844 ft 502 kts 84°
2026-04-26 09:14 57.93026 51.43028 34846 ft 502 kts 84°
2026-04-26 09:15 57.93666 51.56115 34849 ft 502 kts 84°
2026-04-26 09:15 57.94313 51.69188 34852 ft 502 kts 84°
2026-04-26 09:16 57.94944 51.82274 34855 ft 501 kts 84°
2026-04-26 09:16 57.95560 51.95350 34858 ft 501 kts 84°
2026-04-26 09:17 57.96151 52.08428 34855 ft 501 kts 85°
2026-04-26 09:17 57.96727 52.21461 34841 ft 493 kts 85°
2026-04-26 09:18 57.97288 52.34221 34847 ft 487 kts 85°
2026-04-26 09:18 57.97834 52.46920 34850 ft 486 kts 85°
2026-04-26 09:19 57.98360 52.59531 34850 ft 486 kts 85°
2026-04-26 09:19 57.98871 52.72211 34849 ft 485 kts 85°
2026-04-26 09:20 57.99368 52.84895 34849 ft 485 kts 85°
2026-04-26 09:20 57.99861 52.97583 34848 ft 485 kts 85°
2026-04-26 09:21 58.00347 53.10287 34475 ft 487 kts 85°
2026-04-26 09:21 58.00584 53.16676 33811 ft 489 kts 85°
2026-04-26 09:21 58.00815 53.23072 33129 ft 488 kts 85°
2026-04-26 09:21 58.01041 53.29439 32534 ft 486 kts 85°
2026-04-26 09:22 58.01266 53.35790 31913 ft 484 kts 85°
2026-04-26 09:22 58.01483 53.42117 31311 ft 483 kts 85°
2026-04-26 09:22 58.01696 53.48430 30708 ft 482 kts 85°
2026-04-26 09:22 58.01907 53.54735 30111 ft 480 kts 85°
2026-04-26 09:23 58.02116 53.61014 29445 ft 479 kts 85°
2026-04-26 09:23 58.02320 53.67235 28946 ft 473 kts 85°
2026-04-26 09:23 58.02518 53.73418 28388 ft 468 kts 85°
2026-04-26 09:23 58.02711 53.79523 27752 ft 464 kts 85°
2026-04-26 09:24 58.02899 53.85512 27167 ft 450 kts 85°
2026-04-26 09:24 58.03076 53.91293 26684 ft 434 kts 85°
2026-04-26 09:24 58.03244 53.96894 26188 ft 422 kts 85°
2026-04-26 09:24 58.03403 54.02347 25732 ft 409 kts 85°
2026-04-26 09:25 58.03557 54.07623 25306 ft 397 kts 85°
2026-04-26 09:25 58.03708 54.12746 24887 ft 386 kts 85°
2026-04-26 09:25 58.03859 54.17786 24469 ft 384 kts 85°
2026-04-26 09:25 58.04011 54.22798 24049 ft 383 kts 85°
2026-04-26 09:26 58.04112 54.26131 23770 ft 384 kts 85°
2026-04-26 09:26 58.04309 54.32788 23160 ft 383 kts 85°
2026-04-26 09:26 58.04451 54.37799 22707 ft 382 kts 85°
2026-04-26 09:26 58.04545 54.41170 22411 ft 380 kts 85°
2026-04-26 09:27 58.04721 54.47747 21838 ft 378 kts 85°
2026-04-26 09:27 58.04851 54.52691 21400 ft 376 kts 85°
2026-04-26 09:27 58.04980 54.57615 20966 ft 375 kts 85°
2026-04-26 09:27 58.05064 54.60931 20667 ft 374 kts 85°
2026-04-26 09:28 58.05225 54.67402 20093 ft 372 kts 85°
2026-04-26 09:28 58.05308 54.70705 19798 ft 372 kts 85°
2026-04-26 09:28 58.05428 54.75578 19361 ft 371 kts 87°
2026-04-26 09:28 58.05282 54.80437 18930 ft 371 kts 98°
2026-04-26 09:29 58.04796 54.85233 18499 ft 371 kts 101°
2026-04-26 09:29 58.04302 54.89950 18062 ft 371 kts 100°
2026-04-26 09:29 58.03806 54.94732 17595 ft 369 kts 100°
2026-04-26 09:29 58.03314 54.99476 17173 ft 367 kts 100°
2026-04-26 09:30 58.02822 55.04200 16748 ft 365 kts 101°
2026-04-26 09:30 58.02331 55.08901 16329 ft 364 kts 101°
2026-04-26 09:30 58.01848 55.13512 15916 ft 362 kts 101°
2026-04-26 09:30 58.01358 55.18172 15504 ft 361 kts 101°
2026-04-26 09:31 58.00868 55.22810 15097 ft 359 kts 101°
2026-04-26 09:31 58.00376 55.27427 14679 ft 358 kts 101°
2026-04-26 09:31 57.99880 55.32015 14272 ft 357 kts 101°
2026-04-26 09:31 57.99384 55.36600 13861 ft 356 kts 101°
2026-04-26 09:32 57.98895 55.41113 13426 ft 355 kts 102°
2026-04-26 09:32 57.98398 55.45712 13005 ft 352 kts 102°
2026-04-26 09:32 57.97920 55.50153 12592 ft 349 kts 102°
2026-04-26 09:32 57.97570 55.54652 12177 ft 346 kts 92°
2026-04-26 09:33 57.97746 55.59134 11760 ft 343 kts 78°
2026-04-26 09:33 57.98463 55.63403 11349 ft 339 kts 64°
2026-04-26 09:33 57.99547 55.67311 10941 ft 335 kts 60°
2026-04-26 09:33 58.00627 55.71123 10525 ft 322 kts 61°
2026-04-26 09:34 58.01653 55.74780 10125 ft 309 kts 61°
2026-04-26 09:34 58.02634 55.78291 9913 ft 300 kts 61°
2026-04-26 09:34 58.03610 55.81783 9809 ft 300 kts 61°
2026-04-26 09:34 58.04583 55.85271 9421 ft 299 kts 61°
2026-04-26 09:35 58.05550 55.88737 9015 ft 299 kts 61°
2026-04-26 09:35 58.06515 55.92201 8619 ft 296 kts 61°
2026-04-26 09:35 58.07469 55.95630 8248 ft 294 kts 61°
2026-04-26 09:35 58.08416 55.99038 7865 ft 291 kts 61°
2026-04-26 09:36 58.09335 56.02360 7491 ft 280 kts 60°
2026-04-26 09:36 58.10218 56.05559 7142 ft 269 kts 60°
2026-04-26 09:36 58.11065 56.08626 6786 ft 258 kts 60°
2026-04-26 09:36 58.11882 56.11578 6472 ft 250 kts 60°
2026-04-26 09:37 58.12637 56.14536 6148 ft 251 kts 71°
2026-04-26 09:37 58.12812 56.17758 5813 ft 251 kts 98°
2026-04-26 09:37 58.12255 56.20834 5480 ft 246 kts 125°
2026-04-26 09:37 58.11155 56.23193 5298 ft 235 kts 139°
2026-04-26 09:38 58.09982 56.25325 5020 ft 234 kts 140°
2026-04-26 09:38 58.08802 56.27459 4709 ft 235 kts 139°
2026-04-26 09:38 58.07539 56.29357 4373 ft 229 kts 162°
2026-04-26 09:38 58.06036 56.29629 4075 ft 213 kts 200°
2026-04-26 09:39 58.04820 56.28252 3815 ft 201 kts 230°
2026-04-26 09:39 58.03864 56.26350 3557 ft 199 kts 230°
2026-04-26 09:39 58.02904 56.24476 3340 ft 195 kts 229°
2026-04-26 09:39 58.01980 56.22688 3201 ft 185 kts 230°
2026-04-26 09:40 58.01099 56.20966 2955 ft 179 kts 229°
2026-04-26 09:40 58.00247 56.19300 2698 ft 173 kts 229°
2026-04-26 09:40 57.99466 56.17774 2504 ft 160 kts 231°
2026-04-26 09:40 57.98727 56.16333 2274 ft 142 kts 231°
2026-04-26 09:41 57.98057 56.15022 2077 ft 136 kts 231°
2026-04-26 09:41 57.97458 56.13848 1909 ft 134 kts 230°
2026-04-26 09:41 57.96813 56.12588 1738 ft 133 kts 231°
2026-04-26 09:41 57.96174 56.11340 1537 ft 132 kts 232°
2026-04-26 09:42 57.95545 56.10112 1350 ft 132 kts 231°
2026-04-26 09:42 57.94906 56.08853 1094 ft 132 kts 231°
2026-04-26 09:42 57.94270 56.07601 936 ft 132 kts 229°
2026-04-26 09:42 57.93623 56.06358 778 ft 133 kts 229°
2026-04-26 09:43 57.92976 56.05107 577 ft 133 kts 229°
2026-04-26 09:43 57.92347 56.03874 422 ft 131 kts 228°
2026-04-26 09:43 57.91788 56.02773 401 ft 94 kts 224°
2026-04-26 09:43 57.91449 56.02135 397 ft 45 kts 226°
2026-04-26 09:44 57.91293 56.01833 398 ft 29 kts 226°
2026-04-26 09:44 57.91229 56.01678 397 ft 9 kts 246°
2026-04-26 09:44 57.91198 56.01656 395 ft 6 kts 87°
2026-04-26 09:44 57.91253 56.01753 398 ft 19 kts 46°
2026-04-26 09:45 57.91367 56.01970 398 ft 26 kts 45°
2026-04-26 09:45 57.91501 56.02229 390 ft 29 kts 45°
2026-04-26 09:45 57.91601 56.02421 400 ft 12 kts 45°
2026-04-26 09:45 57.91670 56.02482 400 ft 12 kts 343°
2026-04-26 09:46 57.91745 56.02356 394 ft 17 kts 315°
2026-04-26 09:46 57.91810 56.02240 396 ft 10 kts 316°
2026-04-26 09:46 57.91871 56.02150 397 ft 11 kts 327°
2026-04-26 09:46 57.91904 56.02100 393 ft 2 kts 315°
2026-04-26 09:47 57.91911 56.02088 396 ft 0 kts 315°
2026-04-26 09:47 57.91911 56.02087 396 ft 0 kts 315°